| time (UTC) | temp F | wind direction | speed MPH | gust MPH | rain 1hr in | rain 24hr in | rain mn in | humidity % | barometer mb |
| 20260506084033 | 53 | 290 | 2.0 | 5.0 | 0.00 | 0.15 | 0.00 | 93 | 1012.2 |
| 20260506083134 | 53 | 287 | 2.0 | 7.0 | 0.00 | 0.15 | 0.00 | 93 | 1012.0 |
| 20260506081333 | 53 | 334 | 3.0 | 5.0 | 0.00 | 0.15 | 0.00 | 94 | 1012.0 |
| 20260506072834 | 52 | 269 | 1.0 | 9.0 | 0.00 | 0.15 | 0.00 | 94 | 1012.0 |
| 20260506071933 | 53 | 281 | 4.0 | 5.0 | 0.00 | 0.15 | 0.00 | 94 | 1012.1 |
| 20260506070134 | 53 | 314 | 2.0 | 3.0 | 0.00 | 0.15 | 0.00 | 95 | 1011.9 |
| 20260506061633 | 50 | 327 | 1.0 | 2.0 | 0.00 | 0.15 | 0.00 | 93 | 1011.7 |
| 20260506051334 | 47 | 1 | 0.0 | 2.0 | 0.00 | 0.15 | 0.00 | 92 | 1011.4 |
| 20260506044634 | 46 | 330 | 0.0 | 1.0 | 0.00 | 0.15 | 0.00 | 91 | 1011.8 |
| 20260506043734 | 46 | 0 | 0.0 | 0.0 | 0.00 | 0.15 | 0.00 | 91 | 1011.7 |
| 20260506042834 | 46 | 0 | 0.0 | 0.0 | 0.00 | 0.15 | 0.00 | 91 | 1011.6 |
| 20260506041933 | 46 | 336 | 0.0 | 2.0 | 0.00 | 0.15 | 0.00 | 91 | 1011.7 |
| 20260506040134 | 47 | 314 | 1.0 | 2.0 | 0.00 | 0.15 | 0.00 | 91 | 1011.6 |
| 20260506035234 | 46 | 317 | 0.0 | 2.0 | 0.00 | 0.15 | 0.00 | 91 | 1011.8 |
| 20260506034334 | 46 | 321 | 1.0 | 2.0 | 0.00 | 0.15 | 0.00 | 91 | 1011.9 |
| 20260506033434 | 46 | 357 | 0.0 | 1.0 | 0.00 | 0.15 | 0.00 | 91 | 1011.8 |
| 20260506032533 | 47 | 344 | 0.0 | 2.0 | 0.00 | 0.15 | 0.00 | 91 | 1011.8 |
| 20260506031634 | 47 | 340 | 0.0 | 2.0 | 0.00 | 0.15 | 0.00 | 91 | 1011.7 |
| 20260506025834 | 47 | 352 | 0.0 | 2.0 | 0.00 | 0.15 | 0.00 | 91 | 1011.5 |
| 20260506024934 | 47 | 345 | 0.0 | 2.0 | 0.00 | 0.15 | 0.00 | 91 | 1011.7 |
| 20260506024033 | 48 | 342 | 1.0 | 3.0 | 0.00 | 0.15 | 0.00 | 91 | 1011.8 |
| 20260506023133 | 48 | 350 | 0.0 | 6.0 | 0.00 | 0.15 | 0.00 | 91 | 1011.9 |
| 20260506022233 | 48 | 332 | 0.0 | 5.0 | 0.00 | 0.15 | 0.00 | 90 | 1011.9 |
| 20260506021333 | 48 | 297 | 1.0 | 3.0 | 0.00 | 0.15 | 0.00 | 90 | 1012.0 |
| 20260506020433 | 48 | 35 | 0.0 | 3.0 | 0.00 | 0.15 | 0.00 | 90 | 1012.1 |
| 20260506015533 | 48 | 313 | 0.0 | 3.0 | 0.00 | 0.15 | 0.00 | 90 | 1012.1 |
| 20260506013733 | 48 | 354 | 1.0 | 2.0 | 0.00 | 0.15 | 0.00 | 90 | 1012.2 |
| 20260506011934 | 47 | 342 | 0.0 | 3.0 | 0.00 | 0.15 | 0.00 | 90 | 1012.2 |
| 20260506011033 | 47 | 338 | 0.0 | 1.0 | 0.00 | 0.15 | 0.00 | 89 | 1012.4 |
| 20260506005233 | 47 | 1 | 0.0 | 1.0 | 0.00 | 0.15 | 0.00 | 88 | 1012.4 |
| 20260506004333 | 47 | 1 | 0.0 | 2.0 | 0.00 | 0.15 | 0.00 | 88 | 1012.4 |
| 20260506003434 | 47 | 352 | 1.0 | 2.0 | 0.00 | 0.15 | 0.00 | 88 | 1012.6 |
| 20260506002533 | 47 | 0 | 0.0 | 0.0 | 0.00 | 0.15 | 0.00 | 88 | 1012.7 |
| 20260506000733 | 47 | 0 | 0.0 | 0.0 | 0.00 | 0.15 | 0.00 | 87 | 1012.6 |
| 20260505235833 | 47 | 0 | 0.0 | 0.0 | 0.00 | 0.15 | 0.00 | 87 | 1012.8 |
| 20260505233134 | 47 | 349 | 0.0 | 2.0 | 0.00 | 0.15 | 0.00 | 86 | 1013.1 |
| 20260505232234 | 47 | 0 | 0.0 | 0.0 | 0.00 | 0.15 | 0.00 | 85 | 1013.0 |
| 20260505230434 | 48 | 348 | 0.0 | 1.0 | 0.00 | 0.15 | 0.00 | 85 | 1013.1 |
| 20260505225534 | 48 | 0 | 0.0 | 0.0 | 0.00 | 0.15 | 0.00 | 85 | 1013.0 |
| 20260505223734 | 48 | 0 | 0.0 | 0.0 | 0.00 | 0.15 | 0.00 | 84 | 1013.1 |
| 20260505222834 | 49 | 356 | 0.0 | 2.0 | 0.00 | 0.15 | 0.00 | 84 | 1013.0 |
| 20260505221034 | 49 | 343 | 1.0 | 3.0 | 0.00 | 0.15 | 0.00 | 84 | 1013.0 |
| 20260505220134 | 49 | 1 | 2.0 | 3.0 | 0.00 | 0.15 | 0.00 | 83 | 1013.1 |
| 20260505215234 | 49 | 1 | 0.0 | 1.0 | 0.00 | 0.15 | 0.15 | 83 | 1013.2 |
| 20260505214334 | 50 | 348 | 0.0 | 2.0 | 0.00 | 0.15 | 0.15 | 83 | 1013.3 |
| 20260505213433 | 50 | 354 | 0.0 | 2.0 | 0.00 | 0.15 | 0.15 | 83 | 1013.4 |
| 20260505212534 | 51 | 342 | 1.0 | 3.0 | 0.00 | 0.15 | 0.15 | 83 | 1013.5 |
| 20260505211634 | 51 | 313 | 1.0 | 3.0 | 0.00 | 0.15 | 0.15 | 83 | 1013.5 |
| 20260505210734 | 51 | 332 | 2.0 | 3.0 | 0.00 | 0.15 | 0.15 | 82 | 1013.6 |
| 20260505205834 | 50 | 343 | 1.0 | 2.0 | 0.00 | 0.15 | 0.15 | 82 | 1013.6 |
| 20260505204934 | 51 | 318 | 2.0 | 3.0 | 0.00 | 0.15 | 0.15 | 82 | 1013.6 |
| 20260505204034 | 51 | 307 | 2.0 | 5.0 | 0.00 | 0.15 | 0.15 | 82 | 1013.5 |
| 20260505203133 | 51 | 313 | 4.0 | 5.0 | 0.00 | 0.15 | 0.15 | 81 | 1013.4 |
| 20260505202234 | 51 | 310 | 3.0 | 4.0 | 0.00 | 0.15 | 0.15 | 81 | 1013.4 |
| 20260505201334 | 52 | 289 | 3.0 | 5.0 | 0.00 | 0.15 | 0.15 | 81 | 1013.4 |
| 20260505200434 | 52 | 289 | 3.0 | 6.0 | 0.00 | 0.15 | 0.15 | 80 | 1013.4 |
| 20260505195534 | 52 | 289 | 4.0 | 5.0 | 0.00 | 0.15 | 0.15 | 80 | 1013.4 |
| 20260505194634 | 52 | 276 | 2.0 | 5.0 | 0.00 | 0.15 | 0.15 | 79 | 1013.1 |
| 20260505193734 | 53 | 291 | 3.0 | 4.0 | 0.00 | 0.15 | 0.15 | 78 | 1013.1 |
| 20260505191934 | 54 | 279 | 2.0 | 4.0 | 0.00 | 0.15 | 0.15 | 77 | 1013.1 |
| 20260505191034 | 54 | 283 | 2.0 | 4.0 | 0.00 | 0.15 | 0.15 | 77 | 1013.1 |
| 20260505190134 | 54 | 279 | 2.0 | 4.0 | 0.00 | 0.15 | 0.15 | 77 | 1013.1 |
| 20260505185234 | 54 | 288 | 4.0 | 4.0 | 0.00 | 0.15 | 0.15 | 76 | 1012.9 |
| 20260505184336 | 54 | 260 | 3.0 | 5.0 | 0.00 | 0.15 | 0.15 | 76 | 1012.9 |
| 20260505183434 | 54 | 275 | 4.0 | 9.0 | 0.00 | 0.15 | 0.15 | 75 | 1012.9 |
| 20260505182534 | 54 | 280 | 5.0 | 7.0 | 0.00 | 0.15 | 0.15 | 74 | 1012.8 |
| 20260505181634 | 54 | 276 | 3.0 | 4.0 | 0.00 | 0.15 | 0.15 | 73 | 1012.8 |
| 20260505180734 | 55 | 264 | 3.0 | 7.0 | 0.00 | 0.15 | 0.15 | 68 | 1012.7 |
| 20260505175834 | 55 | 242 | 5.0 | 9.0 | 0.00 | 0.07 | 0.15 | 68 | 1012.7 |
| 20260505174934 | 56 | 247 | 7.0 | 15.0 | 0.00 | 0.07 | 0.15 | 66 | 1012.6 |
| 20260505174034 | 57 | 269 | 8.0 | 10.0 | 0.00 | 0.07 | 0.15 | 64 | 1012.6 |
| 20260505172234 | 57 | 294 | 4.0 | 8.0 | 0.00 | 0.07 | 0.15 | 62 | 1012.5 |
| 20260505171334 | 58 | 288 | 5.0 | 10.0 | 0.00 | 0.07 | 0.15 | 61 | 1012.4 |
| 20260505170434 | 60 | 284 | 8.0 | 9.0 | 0.00 | 0.07 | 0.15 | 60 | 1012.6 |
| 20260505165534 | 63 | 280 | 7.0 | 12.0 | 0.00 | 0.07 | 0.15 | 60 | 1012.5 |
| 20260505164634 | 64 | 275 | 6.0 | 11.0 | 0.00 | 0.07 | 0.15 | 56 | 1012.4 |
| 20260505163734 | 65 | 274 | 6.0 | 11.0 | 0.15 | 0.07 | 0.15 | 61 | 1012.4 |
| 20260505162834 | 64 | 317 | 2.0 | 6.0 | 0.15 | 0.07 | 0.15 | 63 | 1012.3 |
| 20260505161934 | 62 | 282 | 4.0 | 8.0 | 0.15 | 0.07 | 0.15 | 63 | 1012.4 |
| 20260505160134 | 61 | 287 | 6.0 | 11.0 | 0.15 | 0.07 | 0.15 | 61 | 1012.2 |
| 20260505152538 | 54 | 270 | 6.0 | 8.0 | 0.00 | 0.00 | 0.00 | 95 | 1014.2 |
| 20260505150737 | 54 | 270 | 6.0 | 8.0 | 0.00 | 0.00 | 0.00 | 95 | 1014.2 |
| 20260505130137 | 54 | 270 | 6.0 | 8.0 | 0.00 | 0.00 | 0.00 | 95 | 1014.2 |
| 20260505123437 | 54 | 270 | 6.0 | 8.0 | 0.00 | 0.00 | 0.00 | 95 | 1014.2 |
| 20260505122537 | 54 | 270 | 6.0 | 8.0 | 0.00 | 0.00 | 0.00 | 95 | 1014.2 |
| 20260505121637 | 54 | 270 | 6.0 | 8.0 | 0.00 | 0.00 | 0.00 | 95 | 1014.2 |
| 20260505120738 | 54 | 270 | 6.0 | 8.0 | 0.00 | 0.00 | 0.00 | 95 | 1014.2 |
| 20260505115837 | 54 | 270 | 6.0 | 8.0 | 0.00 | 0.00 | 0.00 | 95 | 1014.2 |
| 20260505114938 | 54 | 270 | 6.0 | 8.0 | 0.00 | 0.00 | 0.00 | 95 | 1014.2 |
| 20260505114037 | 54 | 270 | 6.0 | 8.0 | 0.00 | 0.00 | 0.00 | 95 | 1014.2 |
| 20260505113137 | 54 | 270 | 6.0 | 8.0 | 0.00 | 0.00 | 0.00 | 95 | 1014.2 |
| 20260505112238 | 54 | 270 | 6.0 | 8.0 | 0.00 | 0.00 | 0.00 | 95 | 1014.2 |
| 20260505111338 | 54 | 270 | 6.0 | 8.0 | 0.00 | 0.00 | 0.00 | 95 | 1014.2 |
| 20260505110437 | 54 | 270 | 6.0 | 8.0 | 0.00 | 0.00 | 0.00 | 95 | 1014.2 |
| 20260505101937 | 54 | 270 | 6.0 | 8.0 | 0.00 | 0.00 | 0.00 | 95 | 1014.2 |
| 20260505101037 | 54 | 270 | 6.0 | 8.0 | 0.00 | 0.00 | 0.00 | 95 | 1014.2 |
| 20260505100137 | 54 | 270 | 6.0 | 8.0 | 0.00 | 0.00 | 0.00 | 95 | 1014.2 |
| 20260505093437 | 54 | 270 | 6.0 | 8.0 | 0.00 | 0.00 | 0.00 | 95 | 1014.2 |
| 20260505092537 | 54 | 270 | 6.0 | 8.0 | 0.00 | 0.00 | 0.00 | 95 | 1014.2 |
| 20260505091637 | 54 | 270 | 6.0 | 8.0 | 0.00 | 0.00 | 0.00 | 95 | 1014.2 |
| 20260505090737 | 54 | 270 | 6.0 | 8.0 | 0.00 | 0.00 | 0.00 | 95 | 1014.2 |
| 20260505085838 | 54 | 270 | 6.0 | 8.0 | 0.00 | 0.00 | 0.00 | 95 | 1014.2 |
| 20260505084937 | 54 | 270 | 6.0 | 8.0 | 0.00 | 0.00 | 0.00 | 95 | 1014.2 |